{"data":{"norad_id":65865,"intl_designator":"2025-223M","name":"STARLINK-35475","alt_names":[],"object_type":"PAYLOAD","status":"ACTIVE","operator":null,"country":"US","launch_date":"2025-10-03","launch_site_code":"AFWTR","launch_vehicle":null,"mission":null,"orbit_class":"UNKNOWN","rcs_meters":null,"size_class":null,"mass_kg":null,"dimensions":null,"purposes":["comms"],"wikipedia_slug":null,"has_3d_model":false,"image_url":null,"decayed_at":null,"tle_current":{"epoch":"2026-05-25T03:08:54.931776Z","epoch_age_seconds":73783,"freshness":"FRESH","line1":"1 65865U 25223M   26145.13119134  .00019786  00000+0  67823-3 0  9994","line2":"2 65865  53.1595 298.7946 0001187  90.3661 269.7476 15.30207033 35910","mean_motion":15.30207033,"eccentricity":0.0001187,"inclination_deg":53.1595,"raan_deg":298.7946,"arg_perigee_deg":90.3661,"mean_anomaly_deg":269.7476,"bstar":0.00067823,"rev_number":3591,"period_min":94.104913187914,"perigee_km":474.38057983142,"apogee_km":476.0075606275,"semimajor_km":6853.3310702295,"source":"CELESTRAK","updated_at":"2026-05-25T13:38:20.974319Z"}}}